Regional Weather Roundup
Issued by NWS

Home | Current Version | Previous Version | Text Only | Print | Product List | Glossary On
Versions: 1 2 3 4 5 6 7 8 9 10 11 12 13 14 15 16 17 18 19 20 21 22 23 24 25 26 27 28 29 30 31 32 33 34 35 36 37 38 39 40 41 42 43 44 45 46 47 48 49 50
953
ASUS43 KTOP 222259
RWRKS

WEATHER ROUNDUP FOR KANSAS
NATIONAL WEATHER SERVICE GOODLAND KS
600 PM CDT TUE AUG 22 2017

NOTE:  "FAIR" INDICATES FEW OR NO CLOUDS BELOW 12,000 FEET WITH NO
SIGNIFICANT WEATHER AND/OR OBSTRUCTIONS TO VISIBILITY.

KSZ001>006-013>018-027>032-041>047-230000-
NORTHWEST KANSAS

CITY           SKY/WX    TMP DP  RH WIND       PRES   REMARKS
GOODLAND       SUNNY     78  55  44 SE9       30.23F
HAYS           SUNNY     84  49  29 NE14      30.15F
HILL CITY      SUNNY     84  47  27 NE12      30.18F
RUSSELL        SUNNY     85  43  22 NE14G21   30.14S
$$

KSZ061>065-074>080-084>089-230000-
SOUTHWEST KANSAS

CITY           SKY/WX    TMP DP  RH WIND       PRES   REMARKS
DODGE CITY     SUNNY     85  54  34 NE14G21   30.14F
ELKHART          N/A     79  64  60 NE12        N/A
GARDEN CITY    SUNNY     84  53  34 E12       30.17F
GREAT BEND     SUNNY     83  54  36 NE12      30.13F
LIBERAL        MOSUNNY   84  62  47 NE14      30.15F
$$

KSZ066>073-081>083-090>101-230000-
SOUTHEAST KANSAS

CITY           SKY/WX    TMP DP  RH WIND       PRES   REMARKS
CHANUTE        SUNNY     83  66  56 N10       30.07F
COFFEYVILLE    PTSUNNY   81  71  71 N13       30.05S
HUTCHINSON     SUNNY     84  57  39 NE8       30.09F
MEDICINE LODGE   N/A     86  65  49 NE16      30.06F
NEWTON         SUNNY     81  58  45 NE12      30.11S
PARSONS        PTSUNNY   81  70  69 N6        30.07S
WICHITA INTL   MOSUNNY   84  57  39 NE20      30.08S
WICHITA JABRA  SUNNY     82  60  47 NE12      30.09S
WINFIELD       CLOUDY    81  68  64 NE12      30.08R
$$

KSZ007>012-019>026-033>040-048>060-102>105-230000-
NORTHEAST KANSAS

CITY           SKY/WX    TMP DP  RH WIND       PRES   REMARKS
CONCORDIA      SUNNY     79  50  36 N12       30.15S
EMPORIA        SUNNY     81  61  50 NE14      30.09F
LAWRENCE       SUNNY     79  59  50 NW13      30.09S
MANHATTAN      SUNNY     80  53  39 N9        30.11S
OLATHE IND     SUNNY     77  61  57 N13       30.09F
OLATHE EXE     MOSUNNY   78  61  55 NW9       30.09S
SALINA         SUNNY     86  47  25 NE17G25   30.11F
TOPEKA BILLARD SUNNY     78  58  49 N10       30.10S
TOPEKA FORBES  SUNNY     80  60  50 NE12      30.10S
$$




USA.gov is the U.S. government's official web portal to all federal, state and local government web resources and services.